www.pogodaiklimat.ru

Погода и климат >> Архив погоды >> Антарктида >> Base Marambio


ПОГОДА в Base Marambio

  • Прогноз погоды в Base Marambio
  • Монитор погоды в Base Marambio
  • Климат города

АРХИВ ПОГОДЫ в Base Marambio

Время (UTC), дата Ветер
(напр.,м/с)
 
Видим.   Явления Облачность Т
(С)
Тd
(С)
f
(%)
Тe
(С)
Тes
(С)
Комфортность P
(гПа)
Po
(гПа)
Тmin
(С)
Tmax
(С)
R
(мм)
R24
(мм)
S
(см)
21 12.08 Ю 12 15 км {туман} 5/0
[Cs]
-10.5 -11.8 90 -22 -22 994.4 969.6
00 13.08 Ю 5 15 км {туман} ясно -12.5 -14.0 89 -21 -21 996.6 971.6 -12.5 -0.7
03 13.08 С 5 200 м туман ясно -10.3 -11.6 90 -18 -18 996.2 971.4
06 13.08 С 6 200 м туман ясно -9.9 -11.1 91 -19 -19 996.3 971.0
09 13.08 С 9 15 км {туман} 5/0
[Cs]
-5.9 -6.6 95 -15 -15 994.3 969.3
12 13.08 СЗ 12 15 км {туман} 9/4 120 м
[St Ac As Cs]
-3.7 -4.2 96 -14 -14 994.0 969.0 -12.6 -3.5
15 13.08 СЗ 9 500 м туман 9/5 90 м
[St Cs]
-2.3 -2.6 98 -11 -11 993.1 968.2
18 13.08 С 10 800 м туман местами 8/3 60 м
[St Cs]
-2.5 -2.8 98 -12 -12 992.4 967.6
21 13.08 СВ 4 200 м туман 10/10 60 м
[St]
-4.1 -4.6 96 -11 -11 991.6 966.9
00 14.08 Ю 5 100 м переохл. туман 10/10 60 м
[St]
-10.8 -12.1 90 -19 -19 990.4 965.6 -12.1 -0.3
03 14.08 Ю 12 100 м переохл. туман 10/10 60 м
[St]
-14.8 -16.5 87 -28 -28 988.0 963.0
06 14.08 Ю 17 200 м переохл. туман {метель} 10/10 150 м
[St]
-14.8 -16.5 87 -29 -29 984.8 960.0
09 14.08 Ю 14 200 м переохл. туман {метель} 10/10 150 м
[St]
-15.2 -17.0 86 -29 -29 982.9 958.0
12 14.08 ЮЗ 18 100 м туман {метель} 10/10 150 м
[St]
-15.7 -17.5 86 -31 -31 опасность
обморожения
981.6 956.4 -16.1 -10.8
15 14.08 ЮЗ 17 100 м туман {метель} 10/10 150 м
[St]
-14.0 -15.7 87 -28 -28 980.5 955.2
18 14.08 ЮЗ 20 100 м туман {метель} 10/10 120 м
[St]
-15.7 -17.5 86 -32 -32 опасность
обморожения
979.2 953.8
21 14.08 ЮЗ 22 100 м туман {метель} 10/5 240 м
[St As op]
-16.0 -17.9 85 -33 -33 опасность
обморожения
979.5 954.2
00 15.08 ЮЗ 23 100 м туман {метель} 10/10 120 м
[St]
-15.2 -17.0 86 -32 -32 опасность
обморожения
979.7 954.4 -16.7 -13.8
03 15.08 ЮЗ 24 100 м туман {метель} 10/10 60 м
[St]
-16.1 -18.0 85 -33 -33 опасность
обморожения
979.4 954.1
06 15.08 ЮЗ 22 100 м снег {туман} 10/0 1050 м
[As op]
-17.5 -19.5 84 -35 -35 опасность
обморожения
979.0 953.6
09 15.08 Ю 23 100 м снег {метель} 10/0 1200 м
[As op]
-18.2 -20.3 84 -36 -36 опасность
обморожения
977.9 952.5
12 15.08 ЮЗ 23 100 м сильная метель {снег} 10/5 240 м
[Frnb As op]
-18.0 -20.0 84 -36 -36 опасность
обморожения
976.8 951.4 -19.4 -15.1
15 15.08 ЮЗ 23 200 м сильная метель 10/4 150 м
[Frnb As op]
-17.3 -19.3 84 -35 -35 опасность
обморожения
975.6 950.2
18 15.08 ЮЗ 21 200 м сильная метель 10/4 120 м
[Frnb Ac As]
-16.2 -18.1 85 -32 -32 опасность
обморожения
974.6 949.3
21 15.08 ЮЗ 20 200 м сильная метель 10/4 120 м
[Frnb Ac As]
-16.1 -18.0 85 -32 -32 опасность
обморожения
974.2 948.8
00 16.08 Ю 20 200 м сильная метель 10/4 120 м
[Frnb Ac As]
-18.1 -20.2 84 -35 -35 опасность
обморожения
974.7 949.2 -18.6 -16.1
03 16.08 Ю 21 100 м сильная метель 10/4 120 м
[Frnb Ac As]
-17.0 -19.0 84 -34 -34 опасность
обморожения
974.8 949.4
06 16.08 Ю 23 100 м туман {метель} 10/10 60 м
[St]
-15.9 -17.7 86 -33 -33 опасность
обморожения
974.7 949.4
09 16.08 Ю 22 100 м туман {метель} 10/10 180 м
[St]
-14.9 -16.6 87 -31 -31 опасность
обморожения
975.9 950.6
12 16.08 Ю 23 100 м туман {метель} 10/6 60 м
[St Ac As]
-15.4 -17.2 86 -32 -32 опасность
обморожения
977.2 951.8 -18.1 -14.7
15 16.08 Ю 21 100 м туман {метель} 10/10 210 м
[St]
-15.0 -16.8 86 -31 -31 опасность
обморожения
977.7 952.4
18 16.08 Ю 23 200 м туман {метель} 9/0
[Ac As Cs]
-15.8 -17.6 86 -33 -33 опасность
обморожения
978.6 953.3
21 16.08 ЮЗ 26 200 м туман {метель} 8/0
[Ac As Cs]
-15.6 -17.4 86 -33 -33 опасность
обморожения
978.8 953.4
00 17.08 Ю 24 200 м туман {метель} 10/10 60 м
[St]
-17.0 -19.0 84 -34 -34 опасность
обморожения
980.5 955.0 -17.1 -14.6
03 17.08 ЮЗ 21 200 м туман {метель} 10/10 60 м
[St]
-15.0 -16.8 86 -31 -31 опасность
обморожения
982.0 956.5
06 17.08 ЮЗ 23 200 м туман {метель} 10/10 60 м
[St]
-16.0 -17.9 85 -33 -33 опасность
обморожения
982.4 957.0
09 17.08 ЮЗ 19 200 м туман {метель} туман ясно -15.1 -16.9 86 -30 -30 985.1 959.6
12 17.08 ЮЗ 17 600 м туман {метель} 4/0
[Cs]
-15.7 -17.5 86 -31 -31 опасность
обморожения
986.4 960.8 -17.1 -14.8
15 17.08 ЮЗ 19 10 км позёмок {метель} 5/1 150 м
[St Cs]
-15.0 -16.8 86 -30 -30 988.6 963.0
18 17.08 ЮЗ 20 2000 м сильный позёмок {туман, метель} 9/0
[Cs]
-16.0 -17.9 85 -32 -32 опасность
обморожения
989.8 964.2
21 17.08 Ю 18 500 м туман {метель} 10/0 2000 м
[Ac As Cs]
-16.7 -18.6 85 -32 -32 опасность
обморожения
991.7 966.0
00 18.08 Ю 17 600 м туман {метель} 10/4 450 м
[St Ac As]
-17.0 -19.0 84 -32 -32 опасность
обморожения
993.2 967.4 -17.2 -14.0
03 18.08 Ю 12 400 м туман {метель} 10/4 300 м
[St Ac As]
-17.7 -19.7 84 -32 -32 опасность
обморожения
995.0 969.2
06 18.08 Ю 14 200 м туман {метель} 10/4 300 м
[St As op]
-18.4 -20.5 83 -33 -33 опасность
обморожения
996.2 970.2
09 18.08 Ю 14 400 м туман {метель} 10/4 300 м
[Frnb As op]
-18.7 -20.8 83 -34 -34 опасность
обморожения
996.4 970.4
12 18.08 Ю 13 200 м туман {снег} 10/4 240 м
[St As op]
-18.9 -21.0 83 -34 -34 опасность
обморожения
997.7 971.7 -18.9 -17.0
15 18.08 Ю 12 500 м туман {метель} 10/3 300 м
[St Ac As Cs]
-19.1 -21.3 83 -33 -33 опасность
обморожения
998.4 972.2
18 18.08 Ю 12 1200 м позёмок {снег, туман} туман 9/0 1050 м
[As op Cs]
-19.4 -21.6 83 -34 -34 опасность
обморожения
999.0 972.8
21 18.08 Ю 13 500 м туман {метель} 10/0 1500 м
[Ac As]
-19.4 -21.6 83 -34 -34 опасность
обморожения
999.8 973.6
00 19.08 Ю 11 200 м туман {метель} 10/0 2000 м
[Ac As]
-19.0 -21.1 83 -33 -33 опасность
обморожения
1000.4 974.2
03 19.08 Ю 10 500 м туман {снег} 10/0 2000 м
[Ac As]
-19.7 -21.9 83 -33 -33 опасность
обморожения
1001.3 975.0
06 19.08 Ю 10 600 м туман {снег} 10/0 2000 м
[Ac As]
-20.0 -22.2 83 -34 -34 опасность
обморожения
1001.3 975.0
09 19.08 Ю 12 500 м туман {метель} 10/0 2000 м
[Ac As]
-20.7 -23.0 82 -36 -36 опасность
обморожения
1000.8 974.5
12 19.08 Ю 9 6000 м в посл. час туман {метель} 10/4 120 м
[Frnb As op]
-20.9 -23.2 82 -34 -34 опасность
обморожения
1001.8 975.4 -20.9 -19.0
15 19.08 Ю 9 8000 м дымка 8/3 120 м
[Frnb As op]
-19.9 -22.1 83 -33 -33 опасность
обморожения
1001.4 975.0

 

Местоположение метеостанции Base Marambio (Антарктида): широта -64.23 долгота -56.71 высота над уровнем моря 198 м.

В архиве по умолчанию представлена погода в Base Marambio за последнюю неделю. Архивные данные за месяц целиком и за предыдущие месяцы, начиная с января 2011 года, Вы можете получить, выбрав интересующий диапазон дат из раскрывающегося списка и нажав кнопку "Ввод!".

Внимание! Время в таблицах - всемирное. Для получения местного времени необходимо прибавить поправку, которая в Base Marambio равна 0 ч.

Смотрите также архив погоды в соседних городах и на ближайших метеорологических станциях:

Погода в Base Esperanza (Антарктида) (93 км)
Погода в Bernardo o`Higgins (Антарктида) (118 км)
Погода в Base Jubany (Антарктида) (242 км)
Погода в Base Arturo Prat (Антарктида) (243 км)
Погода в King Sejong (Антарктида) (247 км)
Погода в Great Wall (Антарктида) (251 км)
Погода в Dinamet-Uruguay (Антарктида) (252 км)
Погода в Bellingshausen (Антарктида) (252 км)
Погода в Juan Carlos I (Антарктида) (253 км)
Погода в Frei Chi-Base (Антарктида) (255 км)

Пояснения к столбцам:

Ветер - указаны скорость ветра в м/с - средняя за 10 мин, порывы в срок и между сроками (в фигурных скобках) и направление, откуда дует ветер: С - северный, СВ - северо-восточный, В - восточный, ЮВ - юго-восточный, Ю - южный, ЮЗ - юго-западный, З - западный, СЗ - северо-западный.
Видимость - горизонтальная дальность видимости в метрах или километрах. При видимости от 1 до 10 км при отсутствии осадков обычно наблюдается дымка, при ухудшении видимости до 1 км и менее - туман. В сухую погоду видимость может ухудшаться дымом, пылью или мглою.
Явления - указаны атмосферные явления, наблюдавшиеся в срок или в последний час перед сроком; фигурными скобками обозначены явления, наблюдавшиеся между сроками (за 1-3 часа до срока); квадратными скобками обозначены град или гололедные отложения с указанием их диаметра в мм.
Облачность - указаны через наклонную черту общая и нижняя облачность в баллах и высота нижней границы облаков в метрах; квадратными скобками обозначены формы облаков: Ci - перистые, Cs - перисто-слоистые, Cc - перисто-кучевые, Ac - высококучевые, As - высокослоистые, Sc - слоисто-кучевые, Ns - слоисто-дождевые, Cu - кучевые, Cb - кучево-дождевые. Подробнее классификацию облаков см. в Атласе облаков (PDF).
T - Температура воздуха - температура, измеренная на высоте 2 м над землей.
Td - Температура точки росы - температура, при понижении до которой содержащийся в воздухе водяной пар достигнет насыщения.
f - Относительная влажность воздуха - влажноcть воздуха, измеренная на высоте 2 м над землей.
Te - Эффективная температура - температура, которую ощущает одетый по сезону человек в тени. Характеристика душности погоды. При расчете учитывается влияние влажности воздуха и скорости ветра на теплоощущения человека.
Tes - Эффективная температура на солнце - температура, которую ощущает человек, с поправкой на солнечный нагрев. Характеристика знойности погоды. Зависит от высоты солнца над горизонтом, облачности и скорости ветра. Ночью, в пасмурную погоду, а также при ветре 12 м/с и более поправка равна нулю.
P - Атмосферное давление - приведенное к уровню моря атмосферное давление.
Po - Атмосферное давление - измеренное на уровне метеостанции атмосферное давление.
Tmin - Минимальная температура - минимум температуры воздуха на высоте 2 м над землей.
Tmax - Максимальная температура - максимум температуры воздуха на высоте 2 м над землей.
R - Количество осадков - Количество выпавших осадков за период времени, мм. При наведении курсора мыши на число - период времени, за который выпало указанное количество осадков.
R24 - Количество осадков - Количество выпавших осадков за 24 часа, мм.
S - Снежный покров - Высота снежного покрова, см. При наведении курсора мыши на число - состояние снежного покрова и степень покрытия местности в баллах.